COSMOS 2251 DEB, 35018

Orbit data source: Space-Track

COSMOS 2251 DEB, 35018 is space debris in LEO originally from a launch on Wed, 16 Jun 1993 UTC launched from the Plesetsk Missile And Space Complex (PKMTR). The debris from Iridium 33, an American commercial communications satellite, has been tracked extensively since its accidental collision with the defunct Russian satellite Cosmos 2251 in 2009. This event, occurring at high speed in low Earth orbit (LEO), generated thousands of pieces of space debris, significantly increasing the risk of further collisions. The Iridium 33 debris cloud has impacted space traffic management and orbital debris mitigation strategies, making it a subject of ongoing study in space situational awareness.

Loading next visibility...
Identifier
35018, 1993-036AGF
Orbit
LEO
Country
Flag of CISCIS
Related business
Manufacturer
Unknown
Mission
Spacecraft
Bus & Motor
Unknown
Mass
Unknown
Launch date (UTC)
1993-06-16 (33 years ago)
Launch vehicle
Unknown
Launch site
Plesetsk Missile And Space Complex (PKMTR)
Object type
Payload
Rocket body
Debris
Shape & HBR
Unknown shape, 0.1 m
Radar Cross Section
Small (<0.1 m²)

Expand to show TLE details & history
Last TLE update: 5 days ago

TLE from 5 days ago
0 COSMOS 2251 DEB
1 35018U 93036AGF 26252.63157618  .00001073  00000-0  85903-3 0  9991
2 35018  73.9793  23.5727 0343630 238.0515 118.6766 13.67824863868898
Epoch: 2026-09-09T15:09Z
TLE epoch observation values (Epoch: 2026-09-09T15:09:28.181Z)
Latitude
-0°
Longitude
167.52442°
Altitude
1,138.265 km
Speed
7.22 km/s
True Right ascension
01h 34m 17s
True Declination
0° 00' 00"
Sunlit
Object was in full shadow at epoch
Visualization orbit readout
Latitude
Unknown
Longitude
Unknown
Altitude
Unknown
Speed
Unknown
Apparent Right ascension
Unknown
Apparent Declination
Unknown
Sunlit
N/A
Visualization observer readout
Local Sidereal Time
13:57:48
Azimuth
Unknown
Elevation
Unknown
Doppler factor
Unknown
Orbital elements
Apogee altitude
1,258.801 km
Perigee altitude
751.381 km
Semi-major axis
7,383.228 km
Eccentricity
0.03436
Inclination
73.9793°
RAAN
23.5727°
Arg. of periapsis
238.0515°
True anomaly
122.05953°
Mean anomaly
118.6766°
Eccentric anomaly
120.3752°
Mean motion
3.42116 °/min
Orbital period
105.23 mins
BSTAR
0.00085903
Loading maneuver chart data...
Computing Atmospheric mass density...

Documentation

Showing up to 5 results
|